星链-35613(STARLINK-35613)

导读 | 豆包AI

STARLINK-35613是由美国发射的Starlink卫星星座成员,于2025年10月19日升空。该卫星属于SpaceX星链项目,主要为全球提供高速互联网接入服务,尤其覆盖偏远地区与网络基础设施薄弱区域,依托低轨轨道布局,助力实现全球互联,推动卫星互联网产业发展。

基本信息
目录编号:
66097
目录名称:
STARLINK-35613
国际标识:
2025-236M
轨道中心:
EARTH
卫星名称:
星链-35613
卫星全名:
星链-35613(STARLINK-35613)
卫星状态:
在轨 (已飞行146 天)
发射日期:
2025-10-19 UTC
国别 :
美国 (US)
星等 :
--
轨道信息
数据来源 国际轨道数据
星历时间: 2026-03-13T15:50:41+0800
22小时前
查看轨道信息
半长轴: 6853.376km
偏心率: 0.0001098
轨道倾角: 53.158°
近地点辐角 87.681°
升交点赤经 86.822°
平近点角 272.431°
近地点: 474.486km
远地点: 475.992km
周期: 94.106分钟
每日圈数: 15.301923
详细信息
固有亮度:
5
最大亮度:
2.5
卫星平台:
Starlink V1.0
覆盖范围:
全球
运营商:
太空探索技术公司
运营商所在国:
美国
制造商(研发单位):
太空探索技术公司
制造商所在国:
美国
使用方式:
暂无
卫星简介
Starlink 计划是 SpaceX 推出的全球卫星互联网项目,通过发射低轨道卫星,为全球尤其是偏远地区提供高速、低延迟的互联网服务。自 2019 年起,Starlink 已部署数千颗卫星,旨在缩小全球数字鸿沟,推动互联网普及。该项目还为军事、航空等行业提供通信支持,带来广泛经济效益。
2D轨道图
3D轨道图
轨道高度分析图
轨道倾角分析图
轨道综合分析图
查看轨道综合分析图